[[[{"header":{"parameterUnit":"kt","parameterCategory":2,"dx":1,"dy":1,"la1":30.253999710083008,"la2":30.299108505249023,"lo1":-89.0895004272461,"lo2":-89.04439544677734,"nx":28,"ny":28,"refTime":"2022-11-01T21:00:00:Z","depth":0,"parameterNumber":1,"parameterNumberName":"U-component_of_WINDS"},"data":[-0.7365,-0.7389,-0.7414,-0.7455,-0.7485,-0.7517,-0.7537,-0.7567,-0.7598,-0.7643,-0.7674,-0.7704,-0.7748,-0.7794,-0.7831,-0.7844,-0.7858,-0.7849,-0.7866,-0.7882,-0.7886,-0.789,-0.7884,-0.7851,-0.7851,-0.7844,-0.7844,-0.7844,-0.7379,-0.7408,-0.7436,-0.748,-0.7506,-0.753,-0.7569,-0.7589,-0.7619,-0.7657,-0.7688,-0.7731,-0.7769,-0.7816,-0.7858,-0.7873,-0.7888,-0.7883,-0.7881,-0.7888,-0.7907,-0.7901,-0.787,-0.787,-0.787,-0.787,-0.787,-0.787,-0.7411,-0.7424,-0.7464,-0.7495,-0.7525,-0.7555,-0.7573,-0.7608,-0.7638,-0.7681,-0.7708,-0.7742,-0.7787,-0.785,-0.7879,-0.7909,-0.792,-0.7923,-0.7923,-0.7923,-0.7919,-0.7926,-0.7918,-0.7918,-0.7918,-0.7918,-0.7918,0,-0.7441,-0.7461,-0.7489,-0.7524,-0.7548,-0.7579,-0.7612,-0.7624,-0.7677,-0.7699,-0.7734,-0.7759,-0.7811,-0.7848,-0.7894,-0.7923,-0.7951,-0.7958,-0.796,-0.7946,-0.7929,-0.7938,-0.7968,-0.7957,-0.7957,-0.7958,-0.7958,-0.7958,-0.7474,-0.7486,-0.754,-0.7557,-0.758,-0.7606,-0.7628,-0.7672,-0.7693,-0.7742,-0.7753,-0.7791,-0.7823,-0.7878,-0.7921,-0.796,-0.7974,-0.7967,-0.798,-0.7968,-0.7974,-0.7972,-0.7974,-0.7963,-0.7962,-0.7962,-0.7962,0,-0.749,-0.753,-0.7556,-0.7609,-0.7623,-0.7634,-0.7681,-0.7697,-0.7729,-0.7757,-0.7766,-0.7817,-0.7852,-0.7896,-0.7946,-0.7968,-0.7993,-0.8006,-0.7978,-0.7982,-0.7981,-0.798,-0.7967,-0.7968,-0.8004,-0.8003,-0.8003,0,-0.7533,-0.7547,-0.7605,-0.7618,-0.7637,-0.768,-0.7698,-0.7727,-0.7764,-0.7786,-0.7824,-0.7844,-0.7897,-0.7925,-0.7958,-0.7986,-0.7995,-0.8014,-0.8022,-0.801,-0.8007,-0.8021,-0.8022,-0.8041,-0.8041,-0.8041,-0.8041,0,-0.7552,-0.76,-0.7622,-0.7639,-0.7696,-0.7707,-0.7732,-0.7772,-0.7793,-0.7827,-0.7841,-0.7879,-0.7899,-0.7929,-0.797,-0.7977,-0.8006,-0.8024,-0.8025,-0.8024,-0.8027,-0.8026,-0.8005,-0.8041,-0.8041,-0.8041,-0.8041,0,-0.7591,-0.7622,-0.7648,-0.7696,-0.7707,-0.7722,-0.776,-0.7783,-0.7823,-0.7844,-0.7872,-0.7902,-0.7929,-0.7944,-0.7983,-0.798,-0.8,-0.802,-0.8021,-0.8025,-0.804,-0.8021,-0.7997,-0.7995,-0.8031,-0.8031,-0.8031,0,-0.7603,-0.7639,-0.7674,-0.7699,-0.7721,-0.7761,-0.778,-0.7813,-0.7841,-0.7867,-0.79,-0.7928,-0.7948,-0.7963,-0.7977,-0.8012,-0.8016,-0.8014,-0.8053,-0.8053,-0.8039,-0.8018,-0.8002,-0.7997,-0.803,-0.803,-0.803,0,-0.7616,-0.7682,-0.7683,-0.7704,-0.7753,-0.7772,-0.7793,-0.7829,-0.7844,-0.7878,-0.7897,-0.7939,-0.7956,-0.798,-0.8008,-0.802,-0.8015,-0.8037,-0.8039,-0.8031,-0.8033,-0.8019,-0.8018,-0.8032,-0.8032,-0.8032,-0.803,0,-0.7665,-0.7687,-0.7694,-0.7737,-0.7758,-0.7776,-0.7818,-0.7835,-0.7859,-0.7888,-0.7918,-0.7956,-0.7995,-0.8005,-0.8029,-0.8042,-0.8046,-0.8064,-0.808,-0.8066,-0.8066,-0.8066,-0.8076,-0.8077,-0.8078,-0.8078,0,0,-0.7666,-0.7698,-0.7735,-0.7754,-0.7774,-0.7813,-0.7828,-0.7853,-0.7901,-0.7915,-0.7925,-0.7988,-0.8019,-0.8051,-0.805,-0.8065,-0.8072,-0.8074,-0.8072,-0.8072,-0.8071,-0.807,-0.807,-0.8079,-0.808,-0.808,-0.808,0,-0.7691,-0.7718,-0.773,-0.7757,-0.7797,-0.7826,-0.7829,-0.7876,-0.7895,-0.7923,-0.7956,-0.7979,-0.8027,-0.8056,-0.8077,-0.8072,-0.8096,-0.8081,-0.8064,-0.8077,-0.8075,-0.8074,-0.8073,-0.8072,-0.8082,-0.8081,-0.8081,0,-0.771,-0.7743,-0.7753,-0.7798,-0.7825,-0.7847,-0.7874,-0.7896,-0.7914,-0.7956,-0.7983,-0.801,-0.8052,-0.8076,-0.8089,-0.8098,-0.8115,-0.8117,-0.8114,-0.8116,-0.8132,-0.813,-0.8128,-0.8152,-0.8153,-0.8153,0,0,-0.7727,-0.7747,-0.7795,-0.7807,-0.7821,-0.7864,-0.788,-0.7904,-0.7938,-0.7952,-0.7987,-0.8021,-0.805,-0.8068,-0.8098,-0.8118,-0.8131,-0.8124,-0.8121,-0.8118,-0.8118,-0.8133,-0.8131,-0.8153,-0.8153,-0.8153,0,0,-0.7735,-0.779,-0.7807,-0.7825,-0.7856,-0.7905,-0.7912,-0.7934,-0.7964,-0.7966,-0.8011,-0.8022,-0.8045,-0.807,-0.8068,-0.8104,-0.812,-0.8121,-0.8086,-0.8083,-0.808,-0.8072,-0.8102,0,0,0,0,0,-0.7781,-0.7783,-0.7798,-0.7807,-0.7864,-0.7897,-0.7905,-0.794,-0.795,-0.7955,-0.7987,-0.8011,-0.8078,-0.8078,-0.8087,-0.8089,-0.8156,-0.8155,-0.8155,-0.8115,-0.811,-0.8107,0,0,0,0,0,0,-0.7784,-0.7795,-0.7798,-0.7846,-0.786,-0.7897,-0.7922,-0.7932,-0.795,-0.7954,-0.8004,-0.8013,-0.8045,-0.8075,-0.8083,-0.8084,-0.8099,-0.8155,-0.8155,-0.8155,-0.8113,-0.811,-0.8107,0,0,0,0,0,-0.7788,-0.7796,-0.7878,-0.7847,-0.7858,-0.7906,-0.7922,-0.7931,-0.7946,-0.7996,-0.8005,-0.797,-0.8044,-0.8053,-0.808,-0.8079,-0.8094,-0.8097,-0.8155,-0.8155,-0.8155,-0.8111,0,0,0,0,0,0,-0.779,-0.7805,-0.7882,-0.7886,-0.7847,-0.7904,-0.7914,-0.7929,-0.7987,-0.7996,-0.7964,-0.7966,-0.8043,-0.805,-0.8057,-0.8076,-0.809,-0.8093,-0.8094,-0.8155,-0.8155,-0.8154,0,0,0,0,0,0,-0.7801,-0.7809,-0.7884,-0.7883,-0.7888,-0.7903,-0.7911,-0.794,-0.7987,-0.7952,-0.7956,-0.7964,-0.8033,-0.8048,-0.8054,-0.8097,-0.8086,-0.8089,-0.8091,-0.8092,-0.8155,-0.8155,0,0,0,0,0,0,-0.7805,-0.7812,-0.7882,-0.7886,-0.789,-0.7948,-0.7929,-0.7986,-0.7984,-0.7949,-0.7985,-0.7985,-0.8031,-0.8037,-0.8052,-0.8092,-0.8096,-0.8087,-0.8088,-0.809,-0.8091,0,0,0,0,0,0,0,-0.7808,-0.7752,-0.7852,-0.7888,-0.7892,-0.7932,-0.7933,-0.7935,-0.7984,-0.7984,-0.7984,-0.7985,-0.8071,-0.8074,-0.8077,-0.8088,0,0,-0.8086,-0.8088,0,0,0,0,0,0,0,0,-0.7749,-0.7751,-0.7852,-0.7853,-0.7854,-0.7932,-0.7933,-0.7934,-0.7984,-0.7984,-0.7984,-0.7985,-0.8071,-0.8074,-0.8076,0,0,0,0,0,0,0,0,0,0,0,0,0,0,0,-0.7852,-0.7853,0,-0.7932,-0.7933,-0.7934,-0.7984,-0.7984,-0.7984,-0.7985,-0.8072,-0.8074,-0.8076,0,0,0,0,0,0,0,0,0,0,0,0,0,0,0,0,0,0,0,0,0,0,0,0,0,0,0,0,0,0,0,0,0,0,0,0,0,0,0,0,0,0,0,0,0,0,0,0,0,0,0,0,0,0,0,0,0,0,0,0,0,0,0,0,0,0,0,0,0]}],[{"header":{"parameterUnit":"kt","parameterCategory":2,"dx":1,"dy":1,"la1":30.253999710083008,"la2":30.299108505249023,"lo1":-89.0895004272461,"lo2":-89.04439544677734,"nx":28,"ny":28,"refTime":"2022-11-01T21:00:00:Z","depth":0,"parameterNumber":2,"parameterNumberName":"V-component_of_WINDS"},"data":[-5.8407,-5.852,-5.8542,-5.8681,-5.8723,-5.8822,-5.8864,-5.892,-5.8969,-5.9088,-5.916,-5.9191,-5.9248,-5.9337,-5.9415,-5.9427,-5.9459,-5.9485,-5.9495,-5.9363,-5.9346,-5.9329,-5.9305,-5.9491,-5.9491,-5.9629,-5.9631,-5.9631,-5.8311,-5.8355,-5.8435,-5.8526,-5.8595,-5.8584,-5.8654,-5.8712,-5.8799,-5.8861,-5.8932,-5.9037,-5.9122,-5.9171,-5.9256,-5.9308,-5.9307,-5.933,-5.9327,-5.9336,-5.9195,-5.9169,-5.9329,-5.9329,-5.9329,-5.9329,-5.9329,-5.9329,-5.8144,-5.821,-5.8278,-5.8364,-5.8416,-5.8476,-5.8543,-5.8581,-5.8657,-5.875,-5.8758,-5.8856,-5.8921,-5.9032,-5.9073,-5.915,-5.9129,-5.9159,-5.9167,-5.9175,-5.9182,-5.8984,-5.9165,-5.9165,-5.9164,-5.9164,-5.9164,0,-5.8028,-5.8041,-5.8118,-5.8202,-5.8266,-5.8332,-5.8396,-5.8437,-5.847,-5.8532,-5.8623,-5.8678,-5.8787,-5.8874,-5.8957,-5.8994,-5.8987,-5.8988,-5.9009,-5.9008,-5.8997,-5.9007,-5.8778,-5.8982,-5.8981,-5.898,-5.8979,-5.8978,-5.7861,-5.7936,-5.8016,-5.8067,-5.8107,-5.8188,-5.8241,-5.8264,-5.8319,-5.84,-5.8457,-5.8544,-5.8615,-5.8755,-5.8796,-5.8876,-5.8874,-5.895,-5.8886,-5.8882,-5.8878,-5.8874,-5.8882,-5.8963,-5.8965,-5.8966,-5.8968,0,-5.7766,-5.78,-5.7921,-5.7992,-5.8012,-5.8088,-5.8149,-5.8215,-5.8243,-5.8338,-5.8361,-5.8405,-5.8492,-5.8521,-5.8625,-5.8638,-5.8764,-5.8758,-5.8743,-5.8744,-5.8817,-5.881,-5.9044,-5.9076,-5.8882,-5.8884,-5.8885,0,-5.7638,-5.7734,-5.7778,-5.7847,-5.7954,-5.7975,-5.808,-5.8115,-5.817,-5.8245,-5.8242,-5.8312,-5.8337,-5.8411,-5.8428,-5.8536,-5.8555,-5.8571,-5.8575,-5.8573,-5.8571,-5.8602,-5.8594,-5.8578,-5.8577,-5.8576,-5.8575,0,-5.7487,-5.7621,-5.7732,-5.7768,-5.7853,-5.7904,-5.7941,-5.8002,-5.8053,-5.8123,-5.8156,-5.8235,-5.8278,-5.8339,-5.8362,-5.8318,-5.8493,-5.8437,-5.851,-5.851,-5.8548,-5.8546,-5.8745,-5.8573,-5.8573,-5.8573,-5.8572,0,-5.7388,-5.746,-5.7615,-5.7686,-5.772,-5.7792,-5.7872,-5.7941,-5.8005,-5.8022,-5.8076,-5.8077,-5.8172,-5.8114,-5.8246,-5.8182,-5.8225,-5.8249,-5.8254,-5.8266,-5.8201,-5.8311,-5.8496,-5.8518,-5.8275,-5.8273,-5.827,0,-5.7207,-5.7372,-5.7391,-5.7537,-5.7617,-5.761,-5.769,-5.7747,-5.7776,-5.7847,-5.7877,-5.7958,-5.7921,-5.795,-5.8011,-5.8045,-5.8128,-5.8035,-5.8138,-5.8141,-5.8123,-5.8294,-5.8315,-5.8452,-5.8239,-5.8242,-5.8245,0,-5.707,-5.7171,-5.7196,-5.7238,-5.7317,-5.7383,-5.7475,-5.756,-5.7607,-5.767,-5.7748,-5.786,-5.7837,-5.7885,-5.7893,-5.7955,-5.8073,-5.7922,-5.7924,-5.795,-5.8225,-5.8245,-5.8268,-5.8065,-5.8068,-5.8071,-5.822,0,-5.6917,-5.7003,-5.707,-5.7161,-5.7217,-5.7309,-5.734,-5.7394,-5.7397,-5.7425,-5.7538,-5.759,-5.7675,-5.7707,-5.771,-5.7843,-5.7825,-5.7799,-5.7745,-5.7856,-5.7906,-5.7926,-5.7669,-5.7668,-5.7667,-5.7666,0,0,-5.6736,-5.6859,-5.6876,-5.6966,-5.7014,-5.7004,-5.71,-5.7145,-5.7236,-5.7269,-5.7239,-5.7405,-5.7448,-5.7583,-5.762,-5.7653,-5.768,-5.7639,-5.7803,-5.7818,-5.7832,-5.7885,-5.7905,-5.7663,-5.7663,-5.7663,-5.7662,0,-5.6686,-5.6733,-5.6827,-5.6875,-5.6946,-5.6971,-5.6994,-5.7062,-5.7083,-5.7194,-5.7183,-5.7254,-5.7385,-5.7433,-5.7475,-5.7624,-5.7611,-5.7647,-5.7719,-5.779,-5.7806,-5.7821,-5.7876,-5.7896,-5.7659,-5.7659,-5.766,0,-5.6558,-5.6609,-5.6658,-5.6766,-5.6812,-5.6893,-5.6845,-5.6932,-5.6993,-5.6975,-5.7085,-5.7117,-5.7183,-5.7305,-5.7361,-5.7335,-5.7548,-5.7485,-5.7493,-5.75,-5.757,-5.759,-5.7608,-5.7372,-5.7371,-5.737,0,0,-5.6511,-5.6591,-5.6651,-5.6757,-5.6787,-5.6824,-5.687,-5.6878,-5.6938,-5.6962,-5.7004,-5.7062,-5.7138,-5.7188,-5.7261,-5.739,-5.7406,-5.7448,-5.7462,-5.7473,-5.7485,-5.7559,-5.7578,-5.7366,-5.7366,-5.7366,0,0,-5.6488,-5.6564,-5.6557,-5.6684,-5.6742,-5.6808,-5.6871,-5.6863,-5.6932,-5.6925,-5.6941,-5.6957,-5.7071,-5.7103,-5.7044,-5.7242,-5.7188,-5.7203,-5.7217,-5.7235,-5.7248,-5.7238,-5.7001,0,0,0,0,0,-5.6454,-5.6555,-5.6548,-5.6573,-5.6708,-5.6812,-5.6829,-5.6845,-5.6808,-5.6858,-5.6891,-5.6874,-5.7075,-5.7023,-5.7047,-5.7113,-5.7312,-5.7322,-5.7331,-5.738,-5.7398,-5.7413,0,0,0,0,0,0,-5.6464,-5.6495,-5.6545,-5.6615,-5.6645,-5.6808,-5.6748,-5.6755,-5.6803,-5.6798,-5.6868,-5.6876,-5.6891,-5.7011,-5.7033,-5.7096,-5.6993,-5.7316,-5.7324,-5.7331,-5.7386,-5.7401,-5.7414,0,0,0,0,0,-5.6472,-5.6498,-5.671,-5.6613,-5.664,-5.6686,-5.6744,-5.675,-5.6787,-5.6839,-5.6846,-5.6795,-5.6892,-5.6912,-5.7024,-5.7085,-5.6978,-5.6986,-5.7321,-5.7328,-5.7333,-5.7393,0,0,0,0,0,0,-5.6478,-5.6503,-5.6715,-5.6724,-5.6576,-5.6677,-5.6693,-5.6745,-5.6824,-5.6833,-5.6765,-5.6761,-5.6895,-5.6909,-5.6925,-5.7081,-5.6966,-5.6974,-5.6979,-5.7326,-5.7331,-5.7336,0,0,0,0,0,0,-5.6489,-5.651,-5.672,-5.6672,-5.6675,-5.6669,-5.6683,-5.678,-5.6825,-5.6747,-5.6745,-5.6762,-5.6871,-5.6908,-5.692,-5.707,-5.6956,-5.6964,-5.697,-5.6973,-5.733,-5.7334,0,0,0,0,0,0,-5.6498,-5.6517,-5.667,-5.6673,-5.6675,-5.6773,-5.6754,-5.6891,-5.6786,-5.6743,-5.6777,-5.6773,-5.6871,-5.6883,-5.6917,-5.7062,-5.7068,-5.6957,-5.6962,-5.6966,-5.6968,0,0,0,0,0,0,0,-5.6506,-5.6382,-5.6664,-5.6673,-5.6675,-5.6804,-5.6806,-5.6808,-5.6785,-5.6781,-5.6778,-5.6774,-5.6911,-5.692,-5.6929,-5.7056,0,0,-5.6956,-5.696,0,0,0,0,0,0,0,0,-5.6375,-5.638,-5.6665,-5.6666,-5.6668,-5.6804,-5.6806,-5.6808,-5.6784,-5.6782,-5.6779,-5.6776,-5.6913,-5.692,-5.6928,0,0,0,0,0,0,0,0,0,0,0,0,0,0,0,-5.6665,-5.6666,0,-5.6804,-5.6806,-5.6808,-5.6784,-5.6782,-5.6779,-5.6777,-5.6915,-5.6921,-5.6927,0,0,0,0,0,0,0,0,0,0,0,0,0,0,0,0,0,0,0,0,0,0,0,0,0,0,0,0,0,0,0,0,0,0,0,0,0,0,0,0,0,0,0,0,0,0,0,0,0,0,0,0,0,0,0,0,0,0,0,0,0,0,0,0,0,0,0,0,0]}]]]